Location: Pabrico
(37.5827°N, 122.0063°W)
Time: 12:10:14
(UTC+00:00)

Cosmos 1666 Rocket - Visible Passes

Search period start: 18 July 2024 00:00
Search period end: 28 July 2024 00:00
Orbit: 601 x 628 km, 82.5° (Epoch: 18 July)

Date Brightness Start Highest point End Pass type
(mag) Time Alt. Az. Time Alt. Az. Time Alt. Az.
18 Jul 5.8 11:42:07 10° SE 11:45:36 24° E 11:49:08 10° NE visible
19 Jul 4.6 11:57:17 10° SSE 12:01:24 45° E 12:05:35 10° NNE visible
20 Jul 3.6 12:12:57 10° S 12:17:17 88° E 12:21:42 10° N visible
21 Jul 6.4 10:54:19 10° ESE 10:56:01 12° E 10:57:43 10° ENE visible
21 Jul 3.9 12:29:04 10° SSW 12:33:15 48° W 12:37:31 10° N visible
22 Jul 5.8 11:08:20 10° SE 11:11:43 22° E 11:15:07 10° NE visible
23 Jul 4.7 11:23:24 10° SSE 11:27:30 41° E 11:31:38 10° NNE visible
24 Jul 3.6 11:39:39 14° S 11:43:21 80° E 11:47:46 10° N visible
25 Jul 6.4 10:20:53 10° E 10:22:07 11° E 10:23:21 10° ENE visible
25 Jul 3.7 11:56:00 16° SSW 11:59:18 53° W 12:03:37 10° N visible
26 Jul 5.8 10:35:13 13° SE 10:37:47 21° E 10:41:03 10° NE visible
26 Jul 4.6 12:12:18 14° SW 12:15:20 28° WNW 12:19:10 10° NNW visible
27 Jul 4.8 10:51:31 24° SE 10:53:33 38° E 10:57:38 10° NNE visible
27 Jul 5.3 12:28:44 10° WSW 12:31:28 16° WNW 12:34:13 10° NW visible
